Location: Bothwell
(42.3833°S, 147.0000°E)
Time: 09:32:59
(UTC+11:00)

Envisat - Pass Details

Date: 05 December 2022
Orbit: 763 x 765 km, 98.2° (Epoch: 28 January)

Event Time Altitude Azimuth Distance (km) Brightness Sun altitude
Rises 04:28:36 0° 15° (NNE) 3,223 6.0 -9.7°
Reaches altitude 10° 04:30:53 10° 15° (NNE) 2,305 5.2 -9.4°
Maximum altitude 04:35:59 90° 314° (NW) 780 3.1 -8.7°
Drops below altitude 10° 04:41:09 10° 193° (SSW) 2,335 5.9 -8.0°
Sets 04:43:29 0° 193° (SSW) 3,269 6.7 -7.7°
